User: anonymous   Login
Location: Unspecified
(0.0000°N, 0.0000°E)
Time: 07:39:20
(UTC+00:00)
Language:

Cosmos 2058 - Orbit

View from above orbital plane
View from above orbital plane
View from above satellite
View from above satellite

Ground track
Ground track

The orbit data is extracted from the following two-line orbital elements,

1 20465U 90010A   19143.00022772  .00000170  00000-0  12089-4 0  9997
2 20465  82.4881 289.9749 0017007  81.5640 278.7509 14.97872271590838
Epoch (UTC): 23 May 2019 00:00:19
Eccentricity: 0.0017007
inclination: 82.4881°
perigee height: 561 km
apogee height: 585 km
right ascension of ascending node: 289.9749°
argument of perigee: 81.5640°
revolutions per day: 14.97872271
mean anomaly at epoch: 278.7509°
orbit number at epoch: 59083

The dashed part of the orbit path shows where the satellite is in the earth's shadow,  

DLR